Wind_Speed
19 19 20 20 21 20 19 19 20 20 20 20 21 22 22 22 23 23 22 23 23 23 24 23 23 23 23 23 23 24 24 24 24 24 25 25 26 26 26 26 27 27 27
20 20 21 22 22 22 21 21 22 22 22 22 22 23 23 24 24 24 24 25 25 25 25 25 24 24 25 25 25 26 26 26 26 25 26 26 26 26 26 26 27 27 28
22 22 23 23 23 23 23 24 24 25 25 25 25 25 25 25 25 26 26 26 26 25 25 25 25 26 26 26 27 27 27 27 27 28 28 28 28 27 27 27 28 28 29
24 24 24 24 24 24 24 25 26 27 26 26 26 26 27 27 27 27 28 27 27 26 26 26 27 27 27 28 29 28 28 28 29 29 29 29 28 28 28 28 28 29 29
26 26 26 26 25 26 26 27 27 27 27 26 27 28 28 29 28 28 29 28 28 27 27 28 28 28 29 29 29 29 30 30 30 30 30 29 29 29 29 29 29 30 30
28 28 28 28 28 28 28 28 28 27 27 27 28 29 29 30 29 29 29 29 28 28 29 29 29 30 30 30 30 30 30 30 30 30 31 31 30 30 30 30 30 30 31
29 30 30 30 30 30 29 29 28 28 28 28 28 29 29 30 30 30 30 30 30 30 30 30 31 31 31 30 31 31 31 31 31 31 31 31 31 31 31 31 32 32 33
29 30 30 31 30 29 29 29 29 29 29 29 29 30 29 30 31 31 31 32 32 32 32 32 32 31 31 32 32 33 33 32 31 31 32 32 33 32 32 32 32 33 33
30 31 31 31 30 30 30 30 31 31 31 31 31 31 30 30 31 32 32 32 32 32 32 32 32 32 33 33 33 33 33 32 32 33 33 33 33 33 33 33 33 34 33
29 30 31 31 31 32 31 31 32 33 33 33 32 32 31 31 32 32 32 32 32 32 32 32 32 32 32 33 33 33 33 33 33 33 33 33 33 34 34 34 34 34 33
30 30 31 32 32 32 32 32 33 34 35 34 33 33 32 32 33 33 33 33 32 33 33 32 33 33 33 33 34 34 33 33 33 33 33 32 32 32 33 33 33 33 33
30 31 31 33 33 33 33 34 34 35 35 35 35 35 34 33 34 34 34 34 34 34 34 34 34 34 34 34 34 34 34 33 33 33 32 32 31 30 30 30 30 31 31
31 32 33 33 34 34 34 35 34 34 33 33 34 34 34 34 34 34 34 35 35 35 35 35 34 34 34 34 34 34 34 33 33 32 31 31 30 29 29 29 29 29 30
32 33 34 34 34 34 34 34 33 33 33 33 34 33 33 34 34 34 35 35 35 35 35 34 34 33 33 33 33 33 33 33 32 32 31 31 30 29 28 28 28 29 29
33 34 34 34 34 34 33 33 33 33 34 34 34 34 34 34 34 34 34 34 33 33 33 33 32 32 32 32 32 32 31 31 31 31 30 29 29 29 28 28 28 29 29
34 34 34 34 34 34 34 34 34 35 34 35 35 35 35 35 36 36 35 35 33 32 32 32 32 32 32 31 31 31 31 31 30 30 29 29 29 29 29 29 29 29 29
33 34 35 35 35 35 35 35 35 35 35 35 35 36 36 36 36 35 35 34 34 32 31 30 30 30 30 30 30 30 29 29 29 29 28 29 29 28 28 28 28 28 28
34 34 35 35 35 35 35 35 35 35 35 35 35 35 34 34 33 33 32 33 32 31 30 29 29 29 29 29 28 28 28 28 28 28 28 28 28 28 28 28 28 28 28
35 35 35 35 34 34 34 34 35 35 34 34 33 33 32 32 32 31 31 30 29 28 28 28 28 28 27 27 27 28 28 27 27 27 27 27 27 27 27 27 27 27 28
34 34 35 34 33 33 33 33 33 34 33 32 31 31 31 31 31 30 30 29 28 27 27 27 27 26 26 27 27 27 27 26 26 26 26 26 26 26 26 26 26 27 27
33 33 33 33 33 33 33 33 32 32 32 31 31 31 31 31 31 30 29 28 28 26 25 25 25 25 26 27 27 26 26 25 25 25 25 25 25 25 25 25 26 26 26
32 31 32 32 33 33 33 33 33 32 31 31 31 31 31 30 29 29 28 28 27 27 26 25 25 25 24 24 23 24 24 24 25 25 25 24 24 24 25 25 25 24 23
30 31 31 32 32 32 32 32 32 31 31 31 31 30 29 28 28 27 27 26 26 25 25 24 24 24 24 23 23 23 24 24 25 25 24 24 23 24 24 24 23 22 22
30 30 31 31 31 31 31 31 30 31 31 30 30 29 28 28 28 27 26 25 25 25 24 24 24 24 23 23 23 23 24 24 24 24 24 24 23 23 23 22 22 22 22
30 30 31 31 31 30 30 29 28 29 29 28 27 26 27 27 27 27 26 26 25 25 25 24 23 23 23 22 23 22 23 23 23 23 23 23 22 21 21 21 21 21 21
29 30 31 31 30 30 29 28 28 27 27 26 25 25 26 26 26 26 26 25 24 24 23 23 22 21 21 21 21 21 22 22 22 22 21 21 20 20 20 20 19 19 19
Wind_Direction
297 297 297 297 295 293 293 292 292 292 292 292 291 290 289 288 287 287 287 288 288 288 288 287 287 287 286 287 285 283 283 283 282 282 282 281 280 280 279 278 277 276 275
293 294 296 297 294 291 293 290 291 292 291 292 291 291 290 288 287 286 286 286 287 287 286 286 286 286 286 287 286 285 284 284 283 282 283 282 281 280 279 279 278 277 277
292 294 296 296 294 292 293 290 291 291 288 288 288 289 288 288 287 285 284 285 286 287 285 284 285 286 287 287 288 288 286 286 286 285 283 281 280 280 279 279 279 278 278
291 293 294 295 294 294 293 291 291 291 288 287 287 287 286 285 286 285 284 285 286 287 286 284 285 285 286 286 286 287 287 287 286 286 285 282 281 280 280 280 281 280 278
289 290 291 292 293 294 293 293 292 291 291 289 289 287 285 285 285 284 285 285 286 285 285 285 285 286 286 285 286 286 286 285 285 285 285 283 282 282 283 282 281 280 279
286 287 288 289 291 292 292 291 292 290 290 290 290 288 286 285 284 285 285 287 287 286 287 287 286 286 286 285 286 286 285 285 284 284 284 284 283 283 284 282 282 281 281
286 284 286 289 291 292 290 290 290 290 289 288 290 289 288 287 286 286 287 286 286 286 286 286 286 286 285 285 285 286 285 284 284 284 284 284 283 283 282 282 282 282 281
287 286 287 288 289 290 290 289 290 290 290 289 289 290 289 288 287 287 287 287 286 285 284 285 285 284 283 283 282 284 285 285 285 285 285 285 283 282 282 282 283 283 282
285 284 285 286 287 288 290 290 290 290 289 289 289 289 288 287 287 287 287 286 286 285 283 283 282 282 282 282 283 284 285 285 285 286 285 284 282 282 282 282 282 282 281
284 285 285 286 286 286 288 289 289 290 289 287 287 288 287 286 287 287 287 286 285 285 285 284 283 283 283 283 284 285 285 285 285 286 286 284 282 282 283 284 283 282 280
285 285 286 286 288 288 289 291 290 289 288 287 287 287 286 285 285 286 287 287 287 286 286 286 285 285 286 285 285 285 285 285 285 287 287 285 284 282 282 283 284 283 280
286 286 287 288 288 288 289 289 290 290 288 287 286 286 285 284 284 285 286 286 286 286 286 286 285 285 286 285 285 284 285 284 285 286 286 286 285 284 283 283 283 282 281
287 287 288 289 288 288 290 290 290 290 289 287 286 285 285 285 285 285 285 286 286 286 285 285 285 285 285 284 284 284 283 284 284 284 284 285 284 282 281 282 282 282 281
286 287 287 288 288 288 289 289 289 290 288 287 287 285 286 287 286 286 286 287 286 286 285 285 285 284 284 284 284 284 284 283 284 284 284 283 282 281 281 282 283 283 282
287 288 288 287 288 288 288 289 289 290 290 288 288 287 286 286 287 286 287 287 287 287 286 286 285 285 285 285 284 284 284 284 284 284 284 283 282 281 281 282 283 283 282
287 288 288 288 287 286 288 289 289 289 290 290 289 288 287 287 286 286 286 286 286 286 286 287 287 286 284 283 284 283 283 283 284 284 283 283 283 282 282 282 283 284 283
287 287 288 287 287 288 288 288 287 288 290 290 289 289 289 288 287 287 286 286 286 285 285 286 287 286 285 285 284 283 284 283 283 283 283 283 282 282 282 283 284 284 284
287 287 288 287 286 287 287 288 289 290 290 291 290 289 290 291 289 289 288 287 287 287 287 286 286 286 286 285 284 284 284 283 283 283 283 283 282 282 283 283 284 284 284
287 287 288 287 286 287 288 289 289 290 291 292 292 291 291 291 292 292 291 290 290 289 288 287 286 285 284 285 284 284 283 283 283 284 284 284 283 283 283 283 283 283 283
288 289 288 289 289 289 289 290 290 291 291 291 291 291 291 292 291 290 290 289 288 288 286 285 285 285 285 285 284 284 283 282 283 285 286 286 284 282 282 283 283 283 283
290 289 290 291 292 292 292 292 291 291 291 291 290 290 291 291 290 288 287 288 287 286 284 285 286 286 287 286 285 284 283 282 283 284 286 287 286 284 283 282 283 283 282
291 291 292 293 295 294 293 293 293 291 291 291 291 291 291 290 289 288 287 287 286 283 283 285 286 286 287 288 288 286 284 284 285 286 287 287 286 285 284 283 282 284 283
290 292 294 295 296 295 295 294 293 292 291 292 292 291 290 290 289 288 286 286 285 285 286 286 286 287 286 287 288 287 285 285 287 289 289 288 287 286 284 282 284 285 284
292 294 295 296 295 296 296 296 295 295 294 293 291 291 290 290 289 289 286 286 286 287 288 288 288 287 287 289 290 289 289 288 288 289 290 289 287 286 285 284 284 284 283
293 294 295 296 295 295 296 297 297 298 297 295 292 290 290 290 290 289 288 286 285 286 287 287 287 287 287 289 290 290 290 290 289 289 289 288 286 284 285 284 283 281 280
295 295 295 295 295 295 295 295 296 298 297 295 293 291 291 291 290 288 288 287 285 284 284 284 285 286 287 288 289 289 289 289 290 290 289 288 287 284 284 283 281 278 276
Height
5881 5879 5877 5875 5873 5871 5869 5867 5865 5863 5862 5860 5858 5856 5854 5852 5850 5848 5847 5845 5843 5842 5840 5839 5838 5836 5834 5833 5831 5830 5829 5827 5826 5825 5824 5823 5821 5820 5819 5818 5817 5816 5816
5876 5874 5872 5870 5868 5866 5864 5862 5860 5858 5856 5854 5852 5850 5848 5846 5844 5842 5840 5838 5837 5835 5834 5832 5831 5829 5828 5826 5825 5823 5822 5820 5819 5818 5817 5815 5814 5813 5811 5810 5809 5808 5808
5871 5869 5867 5865 5863 5861 5858 5856 5854 5852 5849 5847 5845 5843 5841 5839 5837 5835 5833 5831 5829 5828 5827 5825 5824 5822 5821 5819 5818 5816 5815 5813 5811 5810 5809 5807 5806 5805 5804 5803 5801 5801 5800
5866 5864 5861 5859 5857 5855 5853 5850 5848 5845 5842 5840 5838 5836 5834 5832 5830 5828 5825 5823 5822 5820 5819 5818 5816 5815 5813 5812 5810 5809 5807 5805 5804 5802 5800 5799 5797 5796 5795 5794 5793 5792 5791
5859 5857 5855 5853 5851 5849 5846 5843 5841 5838 5835 5833 5830 5828 5826 5824 5822 5820 5818 5816 5814 5813 5811 5810 5808 5807 5805 5804 5802 5801 5799 5797 5795 5794 5792 5791 5789 5788 5787 5785 5784 5783 5782
5851 5849 5847 5846 5844 5841 5839 5836 5834 5831 5829 5826 5823 5820 5818 5817 5815 5812 5810 5808 5806 5805 5803 5802 5800 5799 5797 5795 5794 5792 5790 5788 5787 5785 5783 5782 5781 5779 5778 5776 5775 5774 5773
5844 5842 5840 5838 5836 5834 5831 5829 5826 5824 5821 5819 5816 5813 5811 5809 5807 5805 5802 5800 5798 5796 5794 5793 5791 5790 5788 5786 5785 5783 5782 5780 5778 5776 5775 5773 5771 5770 5769 5767 5765 5764 5763
5836 5834 5832 5830 5828 5825 5823 5821 5818 5816 5814 5811 5809 5806 5803 5801 5798 5796 5794 5792 5790 5788 5786 5784 5782 5780 5779 5777 5775 5774 5772 5770 5769 5767 5765 5763 5762 5760 5759 5757 5755 5754 5753
5828 5826 5824 5822 5819 5817 5815 5813 5810 5808 5805 5803 5800 5798 5795 5792 5790 5787 5785 5783 5781 5779 5777 5775 5773 5772 5770 5768 5766 5764 5763 5761 5759 5757 5756 5754 5752 5750 5748 5747 5745 5743 5742
5820 5818 5816 5813 5811 5808 5806 5804 5802 5799 5797 5794 5792 5789 5786 5784 5782 5779 5776 5774 5772 5770 5768 5766 5764 5762 5760 5758 5756 5755 5753 5751 5749 5747 5745 5744 5742 5740 5738 5736 5734 5733 5732
5811 5809 5807 5804 5802 5800 5797 5795 5792 5790 5787 5785 5782 5780 5777 5775 5773 5770 5767 5764 5762 5760 5758 5756 5755 5753 5751 5748 5746 5745 5743 5741 5739 5737 5735 5733 5731 5729 5728 5726 5724 5722 5721
5802 5800 5798 5795 5793 5791 5788 5786 5783 5780 5777 5775 5772 5770 5767 5765 5763 5760 5757 5755 5753 5751 5749 5747 5745 5743 5741 5738 5736 5734 5732 5730 5728 5727 5725 5723 5721 5719 5718 5716 5715 5713 5711
5793 5791 5789 5786 5784 5781 5778 5776 5773 5770 5768 5765 5762 5760 5757 5754 5752 5750 5748 5745 5743 5740 5738 5736 5734 5732 5730 5728 5726 5724 5722 5720 5718 5717 5715 5713 5711 5710 5708 5707 5705 5703 5701
5784 5782 5779 5776 5774 5771 5769 5766 5763 5760 5758 5755 5752 5749 5747 5744 5742 5740 5737 5734 5732 5729 5727 5725 5723 5721 5719 5717 5716 5714 5712 5710 5708 5707 5705 5704 5702 5700 5699 5697 5696 5694 5692
5774 5772 5769 5767 5764 5761 5759 5756 5753 5750 5747 5745 5742 5739 5737 5734 5732 5729 5726 5724 5721 5718 5716 5714 5713 5711 5709 5707 5706 5704 5702 5700 5699 5697 5695 5694 5692 5691 5689 5688 5686 5685 5683
5765 5762 5759 5757 5754 5751 5748 5745 5743 5740 5738 5735 5732 5729 5726 5724 5721 5718 5716 5714 5711 5709 5707 5705 5703 5701 5699 5697 5696 5694 5692 5691 5689 5687 5686 5684 5683 5682 5680 5679 5677 5676 5674
5755 5752 5749 5746 5743 5740 5738 5735 5733 5730 5727 5724 5721 5718 5716 5713 5710 5708 5705 5703 5701 5698 5696 5695 5693 5691 5689 5687 5686 5684 5683 5681 5680 5678 5677 5675 5674 5672 5671 5670 5668 5667 5665
5745 5742 5739 5736 5733 5730 5727 5724 5722 5719 5717 5713 5711 5708 5705 5702 5700 5697 5695 5692 5690 5688 5686 5685 5683 5681 5679 5678 5676 5675 5674 5672 5671 5669 5668 5666 5665 5663 5662 5661 5659 5658 5657
5734 5731 5728 5725 5722 5719 5717 5714 5711 5709 5706 5703 5700 5697 5694 5692 5689 5687 5685 5683 5681 5679 5677 5675 5674 5672 5670 5669 5667 5666 5665 5663 5662 5660 5659 5657 5656 5654 5653 5652 5651 5650 5648
5723 5720 5718 5715 5712 5710 5707 5704 5701 5698 5695 5692 5690 5687 5685 5682 5680 5678 5675 5673 5671 5670 5668 5666 5665 5663 5661 5660 5658 5657 5656 5654 5653 5651 5650 5648 5647 5646 5645 5644 5642 5641 5640
5713 5710 5708 5705 5702 5700 5697 5694 5691 5687 5685 5682 5680 5677 5675 5672 5670 5668 5666 5664 5663 5661 5659 5658 5656 5654 5653 5651 5650 5648 5647 5646 5644 5643 5641 5640 5638 5637 5637 5636 5634 5633 5631
5704 5701 5698 5695 5692 5689 5686 5684 5681 5678 5675 5672 5670 5667 5665 5663 5661 5659 5657 5656 5654 5652 5651 5649 5647 5646 5644 5643 5641 5640 5639 5638 5636 5635 5633 5632 5631 5630 5629 5628 5626 5625 5623
5695 5692 5689 5686 5683 5680 5677 5674 5671 5668 5665 5662 5660 5658 5655 5653 5652 5650 5648 5647 5645 5644 5642 5641 5639 5638 5636 5635 5633 5632 5631 5630 5628 5626 5625 5624 5623 5621 5620 5619 5618 5617 5616
5686 5683 5680 5677 5673 5671 5668 5665 5662 5658 5656 5653 5650 5648 5646 5645 5643 5641 5640 5638 5637 5635 5634 5633 5631 5630 5629 5627 5625 5624 5622 5621 5620 5618 5617 5616 5615 5613 5612 5611 5610 5609 5609
5677 5674 5671 5668 5665 5662 5659 5656 5653 5650 5646 5644 5642 5640 5638 5636 5635 5633 5631 5630 5629 5627 5626 5625 5623 5622 5621 5619 5618 5616 5615 5613 5612 5610 5609 5608 5607 5605 5604 5603 5602 5601 5601
5668 5665 5662 5659 5656 5653 5650 5647 5645 5642 5639 5636 5634 5632 5630 5628 5626 5625 5623 5622 5621 5619 5618 5617 5616 5615 5613 5612 5611 5609 5608 5606 5604 5603 5601 5600 5599 5598 5597 5596 5595 5594 5594